Location: Drummondville
(45.8830°N, 72.4830°W)
Time: 04:22:57
(UTC-05:00)

N. Korean satellite - Pass Details

Date: 18 November 2017
Orbit: 460 x 515 km, 97.2° (Epoch: 19 November)

Event Time Altitude Azimuth Distance (km) Brightness Sun altitude
Rises 17:13:16 0° 147° (SSE) 2,488 10.0 -10.1°
Reaches altitude 10° 17:15:23 10° 139° (SE) 1,624 9.0 -10.5°
Maximum altitude 17:18:35 36° 71° (ENE) 772 7.0 -11.0°
Drops below altitude 10° 17:21:53 10° 4° (N) 1,661 9.1 -11.6°
Sets 17:24:04 0° 356° (N) 2,555 10.1 -11.9°
